Holdrege, NE

7:42 PM CST on December 07, 2016 (GMT -0600)
Brewster

Weather History for KHDE - January, 2013

Change the Weather History Date:

Saturday, January 26, 2013

  Actual Average Record
Temperature  
Mean Temperature 41 °F -  
Max Temperature 55 °F 32 °F 69 °F (2002)
Min Temperature 27 °F 13 °F -19 °F (1950)
Degree Days  
Heating Degree Days 24    
Moisture  
Dew Point 28 °F    
Average Humidity 64    
Maximum Humidity 89    
Minimum Humidity 33    
Precipitation  
Precipitation 0.00 in - - ()
Sea Level Pressure  
Sea Level Pressure 30.01 in    
Wind  
Wind Speed 11 mph (South)    
Max Wind Speed 25 mph    
Max Gust Speed 30 mph    
Visibility 10 miles    
Events      
Averages and records for this station are not official NWS values.
T = Trace of Precipitation, MM = Missing Value Source: NWS Daily Summary

Daily Weather History Graph

Daily Weather History Graph

Search for Another Location

Airport or City:

Trip Planner

Search our weather history database for the weather conditions in past years. The results will help you decide how hot, cold, wet, or windy it might be!

Date:

Astronomy

Jan. 26, 2013 Rise Set
Actual Time 7:51 AM CST 5:48 PM CST
Civil Twilight 7:22 AM CST 6:17 PM CST
Nautical Twilight 6:49 AM CST 6:50 PM CST
Astronomical Twilight 6:17 AM CST 7:23 PM CST
Moon 5:45 PM CST (1/26) 7:10 AM CST (1/26)
Length of Visible Light 10h 55m
Length of Day
9h 56m
Full, 100% of the Moon is Illuminated
Jan 26
Full
Jan 26
Full
Feb 3
Last Quarter
Feb 10
New
Feb 17
First Quarter

Hourly Weather History & Observations

Time (CST) Temp. Windchill Dew Point Humidity Pressure Visibility Wind Dir Wind Speed Gust Speed Precip Events Conditions
12:15 AM 34.7 °F 27.5 °F 25.7 °F 70% 30.14 in 10.0 mi South 9.2 mph - N/A   Clear
12:35 AM 34.2 °F 26.2 °F 25.5 °F 71% 30.13 in 10.0 mi SSW 10.4 mph - N/A   Clear
12:55 AM 34.3 °F 27.0 °F 25.5 °F 70% 30.13 in 10.0 mi SSW 9.2 mph - N/A   Clear
1:15 AM 34.7 °F 26.9 °F 25.7 °F 70% 30.13 in 10.0 mi SSW 10.4 mph - N/A   Clear
1:35 AM 34.7 °F 26.9 °F 25.7 °F 70% 30.13 in 10.0 mi SSW 10.4 mph - N/A   Clear
1:55 AM 34.7 °F 27.5 °F 25.3 °F 69% 30.12 in 10.0 mi SSW 9.2 mph - N/A   Clear
2:15 AM 33.6 °F 26.8 °F 25.0 °F 71% 30.12 in 10.0 mi SSW 8.1 mph - N/A   Clear
2:35 AM 33.3 °F 26.4 °F 24.8 °F 71% 30.12 in 10.0 mi SSW 8.1 mph - N/A   Clear
2:55 AM 34.3 °F 25.9 °F 25.0 °F 69% 30.10 in 10.0 mi South 11.5 mph - N/A   Clear
3:15 AM 35.2 °F 27.1 °F 24.8 °F 66% 30.10 in 10.0 mi South 11.5 mph - N/A   Clear
3:35 AM 34.9 °F 26.6 °F 24.6 °F 66% 30.09 in 10.0 mi SSW 11.5 mph - N/A   Clear
3:55 AM 34.2 °F 26.2 °F 24.8 °F 69% 30.09 in 10.0 mi SSW 10.4 mph - N/A   Clear
4:15 AM 33.3 °F 25.1 °F 24.8 °F 71% 30.09 in 10.0 mi South 10.4 mph - N/A   Clear
4:35 AM 32.4 °F 24.0 °F 24.6 °F 73% 30.08 in 10.0 mi South 10.4 mph - N/A   Clear
4:55 AM 31.8 °F 25.4 °F 24.3 °F 74% 30.07 in 10.0 mi SSE 6.9 mph - N/A   Clear
5:15 AM 31.5 °F 23.5 °F 25.3 °F 78% 30.07 in 10.0 mi South 9.2 mph - N/A   Clear
5:35 AM 33.1 °F 24.9 °F 25.3 °F 73% 30.08 in 10.0 mi South 10.4 mph - N/A   Clear
5:55 AM 32.9 °F 24.7 °F 25.3 °F 74% 30.08 in 10.0 mi South 10.4 mph - N/A   Clear
6:15 AM 33.8 °F 26.4 °F 25.5 °F 72% 30.08 in 10.0 mi South 9.2 mph - N/A   Clear
6:35 AM 32.9 °F 25.9 °F 25.0 °F 73% 30.07 in 10.0 mi South 8.1 mph - N/A   Clear
6:55 AM 31.5 °F 24.2 °F 24.4 °F 75% 30.08 in 10.0 mi South 8.1 mph - N/A   Clear
7:15 AM 29.3 °F 22.3 °F 23.9 °F 80% 30.09 in 10.0 mi South 6.9 mph - N/A   Clear
7:35 AM 28.2 °F 24.4 °F 23.2 °F 81% 30.09 in 10.0 mi SSE 3.5 mph - N/A   Clear
7:55 AM 27.0 °F 20.5 °F 22.8 °F 84% 30.09 in 10.0 mi SSE 5.8 mph - N/A   Clear
8:15 AM 27.7 °F 20.4 °F 23.2 °F 83% 30.08 in 10.0 mi SSE 6.9 mph - N/A   Clear
8:35 AM 30.2 °F 25.4 °F 24.8 °F 80% 30.09 in 10.0 mi South 4.6 mph - N/A   Clear
8:55 AM 33.8 °F 25.8 °F 26.4 °F 74% 30.08 in 10.0 mi South 10.4 mph - N/A   Clear
9:15 AM 35.1 °F 27.4 °F 26.8 °F 72% 30.08 in 10.0 mi South 10.4 mph - N/A   Clear
9:35 AM 37.2 °F 29.1 °F 27.5 °F 68% 30.08 in 10.0 mi South 12.7 mph - N/A   Clear
9:55 AM 38.8 °F 31.2 °F 27.9 °F 65% 30.07 in 10.0 mi South 12.7 mph 17.3 mph N/A   Clear
10:15 AM 40.3 °F 33.4 °F 28.4 °F 63% 30.07 in 10.0 mi South 11.5 mph - N/A   Clear
10:35 AM 42.1 °F 35.2 °F 29.1 °F 60% 30.07 in 10.0 mi South 12.7 mph 18.4 mph N/A   Clear
10:55 AM 43.7 °F 35.2 °F 28.4 °F 55% 30.07 in 10.0 mi South 20.7 mph 27.6 mph N/A   Clear
11:15 AM 44.2 °F 36.7 °F 28.9 °F 55% 30.07 in 10.0 mi South 17.3 mph 20.7 mph N/A   Clear
11:35 AM 46.4 °F 39.2 °F 28.6 °F 50% 30.06 in 10.0 mi South 18.4 mph 25.3 mph N/A   Clear
11:55 AM 48.2 °F - 27.7 °F 45% 30.05 in 10.0 mi SSW 21.9 mph 27.6 mph N/A   Clear
12:15 PM 48.2 °F - 27.5 °F 45% 30.04 in 10.0 mi South 24.2 mph 29.9 mph N/A   Clear
12:35 PM 49.3 °F - 27.5 °F 43% 30.03 in 10.0 mi South 23.0 mph 27.6 mph N/A   Clear
12:55 PM 49.5 °F - 27.5 °F 43% 30.02 in 10.0 mi South 18.4 mph 24.2 mph N/A   Clear
1:15 PM 50.7 °F - 27.1 °F 40% 30.00 in 10.0 mi South 20.7 mph 28.8 mph N/A   Clear
1:35 PM 51.8 °F - 26.6 °F 38% 29.99 in 10.0 mi South 23.0 mph 27.6 mph N/A   Clear
1:55 PM 52.3 °F - 25.9 °F 36% 29.99 in 10.0 mi South 20.7 mph 29.9 mph N/A   Clear
2:15 PM 53.6 °F - 25.7 °F 34% 29.97 in 10.0 mi South 25.3 mph 28.8 mph N/A   Clear
2:35 PM 53.6 °F - 26.4 °F 35% 29.97 in 10.0 mi South 17.3 mph 27.6 mph N/A   Clear
2:55 PM 54.5 °F - 25.7 °F 33% 29.96 in 10.0 mi South 18.4 mph 28.8 mph N/A   Clear
3:15 PM 54.9 °F - 26.2 °F 33% 29.96 in 10.0 mi South 20.7 mph 25.3 mph N/A   Clear
3:35 PM 55.0 °F - 26.6 °F 33% 29.95 in 10.0 mi South 19.6 mph 25.3 mph N/A   Clear
3:55 PM 53.6 °F - 26.2 °F 35% 29.94 in 10.0 mi South 17.3 mph 26.5 mph N/A   Clear
4:15 PM 51.3 °F - 28.4 °F 41% 29.94 in 10.0 mi South 11.5 mph - N/A   Clear
4:35 PM 50.9 °F - 28.0 °F 41% 29.94 in 10.0 mi South 10.4 mph 16.1 mph N/A   Clear
4:55 PM 49.3 °F - 28.4 °F 45% 29.93 in 10.0 mi South 9.2 mph - N/A   Clear
5:15 PM 48.4 °F - 28.4 °F 46% 29.93 in 10.0 mi SSE 9.2 mph - N/A   Clear
5:35 PM 46.4 °F 41.5 °F 28.6 °F 50% 29.93 in 10.0 mi South 10.4 mph - N/A   Clear
5:55 PM 45.5 °F 41.3 °F 28.4 °F 51% 29.93 in 10.0 mi South 8.1 mph - N/A   Clear
6:15 PM 43.9 °F 39.3 °F 28.4 °F 55% 29.93 in 10.0 mi South 8.1 mph - N/A   Clear
6:35 PM 42.8 °F 38.0 °F 28.6 °F 57% 29.93 in 10.0 mi South 8.1 mph - N/A   Clear
6:55 PM 41.5 °F 36.4 °F 28.4 °F 60% 29.93 in 10.0 mi South 8.1 mph - N/A   Clear
7:15 PM 41.0 °F 35.8 °F 28.0 °F 60% 29.93 in 10.0 mi South 8.1 mph - N/A   Clear
7:35 PM 39.4 °F 35.2 °F 27.7 °F 63% 29.93 in 10.0 mi SSE 5.8 mph - N/A   Clear
7:55 PM 41.0 °F 36.4 °F 30.0 °F 65% 29.93 in 10.0 mi South 6.9 mph - N/A   Clear
8:15 PM 40.3 °F 34.9 °F 31.8 °F 72% 29.92 in 10.0 mi South 8.1 mph - N/A   Scattered Clouds
8:35 PM 42.6 °F 36.8 °F 36.0 °F 77% 29.91 in 10.0 mi South 10.4 mph - N/A   Mostly Cloudy
8:55 PM 43.7 °F 36.6 °F 37.8 °F 80% 29.91 in 10.0 mi South 15.0 mph - N/A   Scattered Clouds
9:15 PM 43.7 °F 37.7 °F 38.3 °F 81% 29.91 in 10.0 mi South 11.5 mph - N/A   Mostly Cloudy
9:35 PM 43.0 °F 37.2 °F 38.3 °F 84% 29.90 in 10.0 mi South 10.4 mph - N/A   Mostly Cloudy
9:55 PM 42.8 °F 37.0 °F 38.5 °F 85% 29.89 in 7.0 mi South 10.4 mph - N/A   Scattered Clouds
10:15 PM 42.3 °F 36.3 °F 38.5 °F 86% 29.89 in 7.0 mi South 10.4 mph - N/A   Mostly Cloudy
10:35 PM 41.9 °F 36.3 °F 38.5 °F 88% 29.88 in 7.0 mi South 9.2 mph - N/A   Overcast
10:55 PM 41.5 °F 35.9 °F 38.3 °F 88% 29.88 in 7.0 mi South 9.2 mph - N/A   Overcast
11:15 PM 41.4 °F 35.2 °F 38.3 °F 89% 29.87 in 7.0 mi South 10.4 mph - N/A   Overcast
11:35 PM 41.5 °F 34.2 °F 38.5 °F 89% 29.87 in 7.0 mi South 13.8 mph - N/A   Overcast
11:55 PM 41.2 °F 34.1 °F 38.3 °F 89% 29.86 in 7.0 mi South 12.7 mph - N/A   Overcast